FW1255 Weather Reports


Display with metric or nautical units.
time (UTC)temp
F
wind
direction
speed
MPH
gust
MPH
rain 1hr
in
rain 24hr
in
rain mn
in
humidity
%
barometer
mb
20260504221556 57 295 21.0 30.0 0.00 0.00 0.00 42 1004.0
20260504220055 57 298 19.0 30.0 0.00 0.00 0.00 47 1003.9
20260504214556 56 289 18.0 30.0 0.00 0.00 0.00 47 1003.8
20260504213053 58 360 23.0 31.0 0.00 0.00 0.00 43 1003.6
20260504211552 60 360 18.0 33.0 0.00 0.00 0.00 42 1003.1
20260504210105 60 306 20.0 31.0 0.00 0.00 0.00 40 1002.8
20260504204651 61 310 20.0 30.0 0.00 0.00 0.00 39 1002.8
20260504203103 62 310 20.0 29.0 0.00 0.00 0.00 37 1002.7
20260504201548 63 298 22.0 32.0 0.00 0.00 0.00 35 1002.5
20260504200048 64 310 21.0 37.0 0.00 0.00 0.00 35 1002.4
20260504194550 65 306 20.0 32.0 0.00 0.00 0.00 38 1002.1
20260504193049 65 360 19.0 30.0 0.00 0.00 0.00 38 1002.1
20260504191545 66 299 19.0 26.0 0.00 0.00 0.00 37 1002.0
20260504190107 66 360 20.0 30.0 0.00 0.00 0.00 36 1002.0
20260504184544 67 333 22.0 27.0 0.00 0.00 0.00 36 1001.9
20260504183043 67 360 16.0 33.0 0.00 0.00 0.00 35 1001.9
20260504181542 66 312 17.0 26.0 0.00 0.00 0.00 36 1001.8
20260504180041 66 298 18.0 31.0 0.00 0.00 0.00 36 1001.5
20260504174539 66 294 18.0 28.0 0.00 0.00 0.00 37 1001.3
20260504173037 66 340 17.0 26.0 0.00 0.00 0.00 37 1001.1
20260504171535 65 313 13.0 24.0 0.00 0.00 0.00 39 1001.1
20260504081601 49 205 5.0 8.0 0.00 0.00 0.00 68 1000.8
20260504044620 53 215 2.0 4.0 0.00 0.00 0.00 58 1003.6
20260504043019 54 216 2.0 4.0 0.00 0.00 0.00 57 1003.8
20260504041515 54 216 1.0 4.0 0.00 0.00 0.00 57 1004.0
20260504040014 55 216 2.0 4.0 0.00 0.00 0.00 54 1004.3
20260504034512 55 248 2.0 7.0 0.00 0.00 0.00 53 1004.6
20260504033009 56 248 4.0 8.0 0.00 0.00 0.00 52 1004.8
20260504031508 58 248 4.0 7.0 0.00 0.00 0.00 49 1005.1
20260504030007 57 249 2.0 5.0 0.00 0.00 0.00 50 1005.3
20260504024507 59 249 3.0 7.0 0.00 0.00 0.00 49 1005.2
20260504023006 58 248 4.0 7.0 0.00 0.00 0.00 49 1005.2
20260504021505 61 251 5.0 7.0 0.00 0.00 0.00 45 1005.2
20260504020004 61 252 5.0 7.0 0.00 0.00 0.00 44 1005.2
20260504014503 63 264 5.0 9.0 0.00 0.00 0.00 42 1005.3
20260504013007 64 265 6.0 9.0 0.00 0.00 0.00 40 1005.3
20260504011502 65 265 7.0 12.0 0.00 0.00 0.00 38 1005.4
20260504010002 67 271 8.0 11.0 0.00 0.00 0.00 37 1005.4
20260504004501 69 268 7.0 11.0 0.00 0.00 0.00 35 1005.3
20260504003100 69 275 9.0 13.0 0.00 0.00 0.00 33 1005.3
20260504001603 70 257 12.0 22.0 0.00 0.00 0.00 31 1005.4
20260504000100 71 360 10.0 18.0 0.00 0.00 0.00 33 1005.4
20260503234557 71 360 14.0 20.0 0.00 0.00 0.00 33 1005.5
20260503233102 72 271 11.0 18.0 0.00 0.00 0.00 31 1005.7
20260503231555 72 268 13.0 19.0 0.00 0.00 0.00 30 1005.7
20260503230056 72 360 9.0 20.0 0.00 0.00 0.00 30 1005.8
20260503224551 72 308 11.0 19.0 0.00 0.00 0.00 29 1006.0
20260503223051 72 259 16.0 21.0 0.00 0.00 0.00 28 1006.0